CAPE
0 4 1 0 0 0 0 0 0 0 0 0 1 0 0 0 0 0 1 2 2 2 3 1 0 1 2 2 0 0 0 0 1 0 0 0 0 0 0 0 0 0 0
1 3 4 1 1 0 0 0 0 0 1 0 0 0 3 3 4 3 6 4 4 2 0 0 3 3 2 1 0 0 0 0 0 0 0 0 0 0 0 0 0 0 0
0 5 0 0 0 0 1 4 3 4 4 5 5 6 4 6 2 4 3 1 2 3 2 3 1 1 1 2 0 0 0 0 0 0 0 0 0 0 0 0 0 0 0
0 0 0 1 2 2 3 4 6 6 3 1 2 3 3 2 3 2 3 1 1 2 2 2 2 1 0 0 0 0 0 0 0 0 0 0 0 0 0 0 0 0 0
3 3 3 2 2 3 4 5 5 5 5 4 4 2 3 4 3 4 5 4 4 4 4 2 1 0 0 0 0 0 0 0 0 0 0 0 0 0 0 0 0 0 0
1 3 2 3 4 4 3 2 5 5 5 4 5 4 5 3 4 4 3 3 3 3 2 2 2 2 0 0 0 0 0 0 0 0 0 0 0 0 0 0 0 0 0
0 0 2 2 4 4 5 3 3 4 3 3 2 3 2 1 3 4 3 2 2 2 2 2 2 0 0 0 0 0 0 0 0 0 0 0 0 0 0 0 0 0 0
0 0 0 1 2 2 3 2 2 2 3 2 2 1 1 2 5 5 3 2 2 2 1 0 0 0 0 0 0 0 0 0 0 0 0 0 0 0 0 0 0 0 0
0 0 0 0 1 2 1 1 1 1 2 1 1 2 2 1 4 5 1 1 0 0 0 0 0 0 0 0 0 0 0 0 0 0 0 0 0 0 0 0 0 0 0
0 0 0 0 1 1 1 1 0 1 2 1 1 1 0 1 2 1 0 0 0 0 0 0 0 0 0 0 0 0 0 0 0 0 0 0 0 0 0 0 0 0 0
0 0 0 0 1 1 1 1 1 1 0 0 0 0 0 0 0 0 0 0 0 0 0 0 0 0 0 0 0 0 0 0 0 0 0 0 0 0 0 0 0 0 0
0 0 0 0 1 1 1 0 0 0 0 0 0 0 0 0 0 0 0 0 0 0 0 0 0 0 0 0 0 0 0 0 0 0 0 0 0 0 0 0 0 0 0
0 0 0 0 0 0 0 0 0 0 0 0 0 0 0 0 0 0 0 0 0 0 0 0 0 0 0 0 0 0 0 0 0 0 0 0 0 0 0 0 0 0 0
0 0 0 0 0 0 0 0 0 0 0 0 0 0 0 0 0 0 0 0 0 0 0 0 0 0 0 0 0 0 0 0 0 0 0 0 0 0 0 0 0 0 0
0 0 0 0 0 0 0 0 0 0 0 0 0 0 0 0 0 0 0 0 0 0 0 0 0 0 0 0 0 0 0 0 0 0 0 0 0 0 0 0 0 0 0
0 0 0 0 0 0 0 0 0 0 0 0 0 0 0 0 0 0 0 0 0 0 0 0 0 0 0 0 0 0 0 0 0 0 0 0 0 0 0 0 0 0 0
0 0 0 0 0 0 0 0 0 0 0 0 0 0 0 0 0 0 0 0 0 0 0 0 0 0 0 0 0 0 0 0 0 0 0 0 0 0 0 0 0 0 0
0 0 0 0 0 0 0 0 0 0 0 0 0 0 0 0 0 0 0 0 0 0 0 0 0 0 0 0 0 0 0 0 0 0 0 0 0 0 0 0 0 0 0
0 0 0 0 0 0 0 0 0 0 0 0 0 0 0 0 0 0 0 0 0 0 0 0 0 0 0 0 0 0 0 0 0 0 0 0 0 0 0 0 0 0 0
0 0 0 0 0 0 0 0 0 0 0 0 0 0 0 0 0 0 0 0 0 0 0 0 0 0 0 0 0 0 0 0 0 0 0 0 0 0 0 0 0 0 0
0 0 0 0 0 0 0 0 0 0 0 0 0 0 0 0 0 0 0 0 0 0 0 0 0 0 0 0 0 0 0 0 0 0 0 0 0 0 0 0 0 0 0
0 0 0 0 0 0 0 0 0 0 0 0 0 0 0 0 0 0 0 0 0 0 0 0 0 0 0 0 0 0 0 0 0 0 0 0 0 0 0 0 0 0 0
0 0 0 0 0 0 0 0 0 0 0 0 0 0 0 0 0 0 0 0 0 0 0 0 0 0 0 0 0 0 0 0 0 0 0 0 0 0 0 0 0 0 0
0 0 0 0 0 0 0 0 0 0 0 0 0 0 0 0 0 0 0 0 0 0 0 0 0 0 0 0 0 0 0 0 0 0 0 0 0 0 0 0 0 0 0
0 0 0 0 0 0 0 0 0 1 1 0 0 0 0 0 0 0 0 0 0 0 0 0 0 0 0 0 0 0 0 0 0 0 0 0 0 0 0 0 0 0 0
1 1 0 0 0 0 0 1 1 1 0 0 0 0 0 0 0 0 0 0 0 0 0 0 0 0 0 0 0 0 0 0 0 0 0 0 0 0 0 0 0 0 0
CIN
0 -1 -1 0 0 0 0 0 0 0 0 0 0 0 0 0 0 0 0 0 0 0 0 0 0 0 0 0 0 0 0 0 0 0 0 0 0 0 0 0 0 0 0
0 0 -2 -2 -5 0 0 0 0 0 0 0 0 0 0 0 0 0 0 0 0 0 0 0 0 0 0 0 0 0 0 0 0 0 0 0 0 0 0 0 0 0 0
0 0 -2 0 0 0 0 0 0 0 0 0 0 0 0 0 0 0 0 0 0 0 0 0 0 0 0 0 0 0 0 0 0 0 0 0 0 0 0 0 0 0 0
0 0 0 0 0 0 0 0 0 0 0 0 0 0 0 0 0 0 0 0 0 0 0 0 0 0 0 0 0 0 0 0 0 0 0 0 0 0 0 0 0 0 0
0 0 0 0 0 0 0 0 0 0 0 0 0 0 0 0 0 0 0 0 0 0 0 0 0 0 0 0 0 0 0 0 0 0 0 0 0 0 0 0 0 0 0
0 0 0 0 0 0 0 0 0 0 0 0 0 0 0 0 0 0 0 0 0 0 0 0 0 0 0 0 0 0 0 0 0 0 0 0 0 0 0 0 0 0 0
0 0 0 0 0 0 0 0 0 0 0 0 0 0 0 0 0 0 0 0 0 0 0 0 0 0 0 0 0 0 0 0 0 0 0 0 0 0 0 0 0 0 0
0 0 0 0 0 0 0 0 0 0 0 0 0 0 0 0 0 0 0 0 0 0 0 0 0 0 0 0 0 0 0 0 0 0 0 0 0 0 0 0 0 0 0
0 0 0 0 0 0 0 0 0 0 0 0 0 0 0 0 0 0 0 0 0 0 0 0 0 0 0 0 0 0 0 0 0 0 0 0 0 0 0 0 0 0 0
0 0 0 0 0 0 0 0 0 0 0 0 0 0 0 0 0 0 0 0 0 0 0 0 0 0 0 0 0 0 0 0 0 0 0 0 0 0 0 0 0 0 0
0 0 0 0 0 0 0 0 0 0 0 0 0 0 0 0 0 0 0 0 0 0 0 0 0 0 0 0 0 0 0 0 0 0 0 0 0 0 0 0 0 0 0
0 0 0 0 0 0 0 0 0 0 0 0 0 0 0 0 0 0 0 0 0 0 0 0 0 0 0 0 0 0 0 0 0 0 0 0 0 0 0 0 0 0 0
0 0 0 0 0 0 0 0 0 0 0 0 0 0 0 0 0 0 0 0 0 0 0 0 0 0 0 0 0 0 0 0 0 0 0 0 0 0 0 0 0 0 0
0 0 0 0 0 0 0 0 0 0 0 0 0 0 0 0 0 0 0 0 0 0 0 0 0 0 0 0 0 0 0 0 0 0 0 0 0 0 0 0 0 0 0
0 0 0 0 0 0 0 0 0 0 0 0 0 0 0 0 0 0 0 0 0 0 0 0 0 0 0 0 0 0 0 0 0 0 0 0 0 0 0 0 0 0 0
0 0 0 0 0 0 0 0 0 0 0 0 0 0 0 0 0 0 0 0 0 0 0 0 0 0 0 0 0 0 0 0 0 0 0 0 0 0 0 0 0 0 0
0 0 0 0 0 0 0 0 0 0 0 0 0 0 0 0 0 0 0 0 0 0 0 0 0 0 0 0 0 0 0 0 0 0 0 0 0 0 0 0 0 0 0
0 0 0 0 0 0 0 0 0 0 0 0 0 0 0 0 0 0 0 0 0 0 0 0 0 0 0 0 0 0 0 0 0 0 0 0 0 0 0 0 0 0 0
0 0 0 0 0 0 0 0 0 0 0 0 0 0 0 0 0 -1 0 0 0 0 0 0 0 0 0 0 0 0 0 0 0 0 0 0 0 0 0 0 0 0 0
0 0 0 0 0 0 0 0 0 0 0 0 0 0 0 0 0 0 0 0 0 0 0 0 0 0 0 0 0 0 0 0 0 0 0 0 0 0 0 0 0 0 0
0 0 0 0 0 0 0 0 0 0 0 0 0 0 0 0 0 0 0 0 0 0 0 0 0 0 0 0 0 0 0 0 0 0 0 0 0 0 0 0 0 0 0
0 0 0 0 0 0 0 0 0 0 0 0 0 0 0 0 0 0 0 0 0 0 0 0 0 0 0 0 0 0 0 0 0 0 0 0 0 0 0 0 0 0 0
0 0 0 0 0 0 0 0 0 0 0 0 0 0 0 0 0 0 0 0 0 0 0 0 0 0 0 0 0 0 0 0 0 0 0 0 0 0 0 0 0 0 0
0 0 0 0 0 0 0 0 0 0 0 0 0 0 0 0 0 0 0 0 0 0 0 0 0 0 0 0 0 0 0 0 0 0 0 0 0 0 0 0 0 0 0
0 0 0 0 0 0 0 0 0 0 0 0 0 0 0 0 0 0 0 0 0 0 0 0 0 0 0 0 0 0 0 0 0 0 0 0 0 0 0 0 0 0 0
0 0 0 0 0 0 0 0 0 0 0 0 0 0 0 0 0 0 0 0 0 0 0 0 0 0 0 0 0 0 0 0 0 0 0 0 0 0 0 0 0 0 0
Wind_Speed
38 37 34 36 38 41 41 41 39 37 32 30 22 18 22 18 18 19 21 22 15 14 14 20 17 14 13 11 10 12 14 15 14 14 10 3 4 6 9 12 15 18 19
28 27 28 29 30 33 33 32 31 32 31 31 18 18 18 16 13 13 15 11 18 15 8 12 15 11 9 8 10 12 9 7 6 4 5 3 5 7 9 12 15 17 18
19 20 17 20 23 23 23 22 23 22 21 22 18 14 15 14 13 13 10 9 7 9 7 4 6 7 5 6 6 7 5 5 5 4 6 4 8 9 12 15 15 15 20
12 8 10 10 13 14 15 17 15 15 15 14 15 9 10 6 8 6 4 7 4 6 5 4 3 4 2 3 4 5 3 2 3 5 5 7 9 12 13 15 16 20 23
12 10 6 3 6 7 9 9 9 7 7 9 12 9 13 8 6 6 5 2 3 2 3 1 2 3 3 3 0 3 1 3 4 6 8 9 12 14 13 14 18 24 27
3 3 2 3 4 5 5 6 4 3 1 1 4 6 6 5 3 4 3 3 4 5 4 4 3 4 3 5 4 3 3 3 5 7 9 10 12 9 12 16 21 26 30
2 4 7 5 5 6 5 6 8 7 6 6 6 6 6 5 7 7 7 7 6 5 5 6 5 5 5 5 7 7 8 8 9 9 10 9 9 11 15 19 23 26 28
6 6 5 6 8 8 10 12 9 9 11 11 11 12 13 12 13 14 13 11 11 9 8 8 8 8 7 7 6 8 9 11 11 11 10 11 13 14 18 21 23 26 29
7 7 7 7 9 12 14 13 14 14 13 12 11 12 13 12 14 16 13 12 12 12 12 12 11 8 7 7 8 9 10 11 12 13 13 14 16 17 18 21 24 28 33
10 13 12 15 17 15 15 14 13 15 15 14 13 14 15 14 13 12 12 13 10 14 13 11 9 8 9 10 9 9 9 10 11 13 15 17 17 17 18 20 23 29 32
16 12 16 15 17 19 18 14 14 15 16 16 14 11 13 16 12 12 12 13 12 11 11 10 9 10 10 10 10 10 11 9 12 14 16 17 18 19 21 22 23 26 30
20 20 21 21 19 17 17 14 14 15 15 14 14 11 12 14 12 10 14 14 13 11 11 10 9 9 10 10 11 11 11 12 14 15 18 20 21 22 23 22 23 25 26
29 26 23 22 20 18 20 18 17 18 19 15 12 9 9 14 14 14 13 13 12 11 10 10 9 9 10 11 10 10 12 14 15 19 21 22 22 22 23 26 27 28 29
31 28 26 26 24 21 18 19 19 18 18 17 15 13 12 12 13 14 14 13 13 12 11 11 11 11 10 10 12 12 13 16 19 21 23 24 24 25 28 28 31 33 35
29 28 27 25 24 23 22 19 17 14 16 16 15 15 14 14 13 12 12 12 12 11 11 10 10 9 9 11 13 15 17 19 21 23 25 26 27 29 30 30 32 34 37
26 25 24 24 23 23 21 18 15 15 15 15 15 15 14 13 12 12 11 10 9 8 9 8 8 10 12 14 17 19 19 21 23 24 26 28 30 31 32 33 33 36 40
21 21 21 21 21 20 19 18 17 17 17 16 16 15 13 12 11 10 10 10 9 8 13 11 13 14 15 17 19 21 24 24 25 26 27 29 31 33 35 36 37 40 41
18 18 18 18 18 17 17 17 16 15 13 12 12 12 12 11 11 11 11 12 12 10 13 15 16 18 20 21 23 24 26 27 27 28 30 31 32 34 36 39 39 40 41
17 17 16 16 15 15 14 13 12 10 9 9 10 12 12 9 9 9 10 13 14 15 17 19 21 22 23 24 25 26 26 28 29 30 31 32 33 34 38 38 39 38 40
15 14 13 13 12 11 10 9 8 8 8 9 9 10 12 14 13 13 15 16 18 20 21 23 25 25 26 26 27 27 28 30 31 32 33 33 33 34 38 39 38 39 40
11 10 9 9 8 8 8 7 8 9 10 11 12 13 14 15 17 18 20 20 22 23 24 26 27 27 27 28 28 29 29 31 31 32 33 34 34 37 36 37 38 38 38
8 7 7 7 9 10 11 12 13 14 15 17 19 19 19 20 21 23 23 24 24 25 26 27 29 29 29 29 29 30 31 32 33 34 35 35 35 36 37 38 38 37 36
4 4 4 5 6 7 10 13 15 17 19 21 22 23 22 23 24 25 26 27 27 27 28 28 30 31 29 29 29 30 32 33 33 33 35 36 37 38 37 37 36 36 35
2 4 6 9 11 12 14 15 16 17 19 21 23 24 25 26 27 28 29 30 30 30 29 30 30 31 32 31 31 31 32 33 33 34 34 35 37 36 36 35 33 32 32
7 10 12 14 16 17 18 19 20 21 23 24 26 27 28 28 29 30 32 33 33 33 33 32 32 33 33 33 33 33 33 33 33 33 33 33 35 34 32 31 31 30 30
12 15 17 19 19 21 22 24 25 26 27 28 29 30 31 31 32 33 34 35 35 35 35 34 34 34 34 34 33 33 33 34 34 32 31 31 32 30 29 29 29 29 30
Wind_Direction
265 264 261 256 256 251 250 248 241 236 238 243 252 253 246 244 250 252 254 244 241 252 253 241 249 248 250 264 262 275 281 295 295 307 306 288 294 310 320 326 330 330 336
278 264 257 257 258 252 246 240 236 235 238 241 256 265 261 248 260 259 258 256 243 255 264 248 244 253 257 256 267 280 288 301 309 307 306 299 308 319 326 327 330 337 340
269 264 268 265 254 246 240 232 227 230 233 242 255 260 263 263 255 271 256 257 258 264 261 238 232 256 259 253 277 282 290 305 321 311 308 318 323 325 326 329 336 341 337
345 316 283 274 247 238 233 223 220 229 231 246 248 277 257 254 269 269 271 251 244 258 251 242 283 279 203 236 274 286 306 348 352 333 326 321 324 326 334 330 336 335 333
358 11 356 287 230 214 210 208 204 217 233 240 245 262 270 293 279 270 278 268 265 244 280 338 302 72 83 80 157 301 340 2 339 331 325 324 324 327 332 342 336 332 331
301 340 225 186 177 172 147 156 160 156 112 325 286 283 310 327 56 78 96 104 97 93 84 66 57 62 36 54 58 23 352 20 337 331 329 328 329 355 345 338 333 333 332
156 168 166 160 133 121 117 99 83 76 63 47 50 51 50 62 79 83 87 83 86 77 74 76 61 48 57 60 49 34 10 3 352 345 330 349 358 348 339 335 334 333 333
121 122 114 86 87 72 82 72 73 75 66 66 67 72 76 78 85 85 84 81 75 73 74 77 78 72 64 55 29 19 15 356 11 23 14 360 353 346 339 336 335 335 334
50 58 61 68 68 69 73 73 67 76 75 68 67 72 73 74 78 82 81 78 76 72 72 74 76 64 52 45 37 14 6 26 14 12 7 357 349 344 342 340 337 335 334
46 41 48 54 62 66 64 66 72 69 70 68 72 67 72 74 78 77 73 73 65 73 68 61 53 40 43 46 25 26 21 7 0 355 350 347 346 345 343 341 338 334 334
32 44 44 49 54 55 60 64 69 69 68 67 68 63 65 69 65 65 63 66 66 58 60 53 40 53 40 20 8 7 2 7 354 348 345 344 343 341 340 339 337 336 334
35 39 42 46 49 51 56 61 61 63 65 63 64 58 51 54 51 45 58 61 63 57 54 42 34 25 21 17 12 10 8 2 352 347 343 339 337 336 336 336 336 335 333
47 46 44 46 47 47 55 56 57 60 64 58 54 42 31 43 46 46 37 38 40 39 31 39 39 29 18 7 9 9 1 352 345 339 336 335 336 336 336 335 333 333 333
56 52 51 55 52 47 45 49 55 57 60 59 55 46 36 29 31 34 34 28 27 25 26 22 16 11 12 6 354 352 346 341 337 335 334 334 335 333 332 332 332 332 331
61 61 59 54 54 52 48 41 39 25 40 48 47 52 57 57 47 32 31 24 27 30 29 22 15 5 357 347 341 337 335 335 331 331 330 329 329 330 330 331 330 331 329
72 70 66 62 56 61 56 40 12 14 19 30 40 48 36 54 54 51 49 51 52 51 22 7 352 343 337 334 330 328 327 327 327 327 327 327 327 328 328 330 329 329 328
64 63 63 67 66 63 59 56 49 26 38 56 68 75 70 63 60 50 37 26 20 11 349 345 337 332 328 326 325 324 323 324 325 325 325 325 326 326 327 327 328 328 327
79 92 103 109 115 117 118 113 109 110 103 84 55 43 37 35 25 18 13 4 352 344 337 331 326 325 323 321 321 320 321 322 323 323 323 323 324 325 325 325 326 326 327
140 137 129 123 119 114 110 103 98 94 88 68 46 25 18 20 13 4 356 342 335 328 324 322 320 320 319 318 318 318 319 319 320 320 321 322 323 323 323 324 325 325 326
138 124 119 114 105 99 93 83 69 52 33 20 9 360 355 349 340 333 330 328 324 321 321 319 318 316 315 314 315 315 316 316 317 318 319 320 322 322 322 323 324 325 325
128 120 103 84 73 61 48 36 21 8 357 348 341 340 336 329 325 322 320 318 317 317 317 316 315 314 313 312 312 312 312 314 315 316 317 319 320 320 322 322 323 324 324
117 91 69 48 26 12 2 355 347 341 337 332 330 329 326 323 321 319 317 316 315 315 315 315 314 313 312 311 310 310 310 312 313 315 316 317 319 319 320 321 322 323 324
100 70 46 19 4 355 348 343 338 334 330 327 325 323 322 319 318 318 316 316 315 314 314 313 313 314 313 312 311 310 310 311 313 314 315 316 317 318 319 320 321 322 324
15 357 346 341 340 337 335 333 332 330 329 328 326 323 321 320 318 317 316 317 316 315 315 314 313 313 313 312 311 310 310 311 313 313 314 315 316 317 318 319 320 321 323
330 332 332 332 332 331 330 329 329 328 327 325 324 324 322 320 319 318 318 317 316 316 315 314 314 313 312 311 311 311 311 311 312 313 314 314 314 316 317 319 320 322 323
320 323 326 328 327 327 326 326 326 325 324 323 322 322 321 320 319 319 318 317 316 316 315 315 314 313 313 313 312 312 312 312 312 311 312 314 315 316 318 318 319 320 322